Total_Precipitation_Accumulation
2.76 2.85 2.90 2.97 2.79 2.72 2.67 2.36 2.05 2.11 2.19 2.12 1.87 1.82 1.87 1.88 1.96 2.15 2.40 2.32 2.19 2.37 2.70 2.94 3.10 3.14 3.11 3.14 3.14 3.13 3.01 2.96 2.91 2.74 2.46 2.24 2.09 2.04 2.09 2.15 2.15 2.08 2.02
3.04 3.07 3.14 3.15 3.00 2.98 2.90 2.64 2.43 2.54 2.48 2.40 2.15 2.03 2.02 2.07 2.08 2.18 2.37 2.37 2.08 1.98 2.27 2.73 3.04 3.25 3.32 3.35 3.24 3.13 3.11 3.03 3.01 2.84 2.61 2.39 2.22 2.13 2.08 2.08 2.12 2.10 2.04
3.25 3.31 3.40 3.32 3.13 3.05 3.05 2.97 2.83 2.78 2.68 2.47 2.33 2.32 2.27 2.12 2.05 2.24 2.36 2.37 2.23 2.11 2.21 2.40 2.63 2.94 3.34 3.55 3.47 3.34 3.27 3.20 3.09 2.93 2.78 2.60 2.39 2.23 2.12 2.07 2.06 2.06 2.04
3.21 3.46 3.53 3.36 3.17 3.06 3.16 3.27 3.11 3.01 2.96 2.87 2.62 2.38 2.29 2.25 2.15 2.17 2.16 2.23 2.39 2.29 2.33 2.29 2.39 2.58 2.92 3.26 3.53 3.61 3.52 3.38 3.24 3.08 2.97 2.83 2.69 2.44 2.24 2.18 2.12 2.06 2.05
3.31 3.53 3.62 3.63 3.37 3.33 3.41 3.26 3.43 3.28 3.24 3.04 2.64 2.46 2.20 2.04 2.08 2.04 2.10 2.11 2.17 2.20 2.25 2.25 2.32 2.40 2.63 2.95 3.23 3.44 3.53 3.48 3.27 3.04 2.99 2.99 2.85 2.63 2.45 2.36 2.24 2.14 2.07
3.45 3.65 3.67 3.73 3.60 3.63 3.81 3.76 3.76 3.57 3.26 3.06 2.64 2.42 2.15 1.90 1.85 1.89 1.89 1.90 1.90 1.88 1.95 2.02 2.18 2.17 2.30 2.52 2.92 3.23 3.65 3.77 3.52 3.31 3.21 3.07 2.89 2.64 2.46 2.42 2.36 2.29 2.20
4.04 4.23 4.06 4.00 3.80 3.73 3.80 3.79 3.67 3.58 3.38 3.29 3.18 2.79 2.29 1.87 1.72 1.62 1.70 1.77 1.73 1.67 1.76 1.90 1.95 1.97 2.02 2.11 2.30 2.68 3.33 3.69 3.63 3.49 3.44 3.26 3.01 2.80 2.60 2.53 2.50 2.46 2.36
4.68 4.56 4.48 4.20 3.98 3.85 3.69 3.62 3.54 3.44 3.22 3.21 3.25 3.13 2.69 2.31 1.86 1.48 1.62 1.67 1.66 1.72 1.73 1.66 1.68 1.69 1.67 1.81 1.94 2.26 2.67 2.97 3.31 3.54 3.59 3.32 3.11 2.98 2.86 2.72 2.65 2.60 2.55
4.54 4.40 4.32 4.13 3.99 3.82 3.63 3.58 3.52 3.46 3.31 3.26 3.25 3.36 3.13 2.61 2.08 1.73 1.59 1.60 1.68 1.75 1.73 1.66 1.60 1.59 1.61 1.70 1.77 2.00 2.30 2.42 2.74 3.08 3.38 3.22 3.08 3.11 3.08 3.02 2.96 2.91 2.83
4.24 4.09 4.14 4.04 3.88 3.69 3.52 3.25 3.22 3.32 3.43 3.24 3.11 2.90 2.75 2.52 2.38 2.10 1.83 1.72 1.68 1.66 1.67 1.63 1.54 1.59 1.65 1.77 1.92 1.96 2.03 2.07 2.25 2.51 2.70 2.76 2.80 2.92 3.03 2.97 3.00 3.08 3.09
3.94 3.69 3.68 3.61 3.43 3.24 3.11 2.96 2.90 2.95 3.06 3.02 2.97 2.86 2.74 2.56 2.34 2.25 2.06 1.89 1.82 1.69 1.63 1.65 1.64 1.64 1.70 1.73 1.81 1.85 1.90 1.90 2.00 2.12 2.19 2.31 2.46 2.65 2.82 2.90 2.98 3.12 3.27
3.73 3.45 3.15 3.08 3.01 2.84 2.61 2.55 2.54 2.52 2.61 2.67 2.74 2.67 2.51 2.43 2.35 2.35 2.22 2.05 1.98 1.85 1.75 1.73 1.70 1.65 1.68 1.61 1.55 1.72 1.68 1.69 1.74 1.85 1.93 1.98 2.08 2.24 2.40 2.57 2.83 3.03 3.15
3.24 2.99 2.78 2.65 2.55 2.46 2.33 2.26 2.27 2.14 2.10 2.18 2.20 2.31 2.30 2.22 2.11 2.19 2.28 2.18 2.00 1.88 1.80 1.72 1.60 1.54 1.51 1.55 1.61 1.62 1.48 1.45 1.41 1.45 1.55 1.68 1.82 1.95 2.00 2.12 2.29 2.53 2.75
2.71 2.49 2.42 2.23 2.00 1.84 1.78 1.84 1.89 1.86 1.84 1.84 1.81 2.00 2.08 2.05 2.01 2.00 2.06 2.24 2.21 2.00 1.88 1.72 1.60 1.53 1.49 1.49 1.57 1.42 1.33 1.32 1.27 1.29 1.33 1.40 1.55 1.75 1.82 1.79 1.76 1.81 1.96
2.13 2.04 1.96 1.91 1.79 1.67 1.59 1.57 1.62 1.71 1.72 1.65 1.65 1.76 1.79 1.76 1.78 1.82 1.89 2.06 2.27 2.19 1.99 1.77 1.73 1.66 1.63 1.59 1.66 1.41 1.39 1.36 1.32 1.34 1.36 1.38 1.48 1.66 1.74 1.70 1.57 1.47 1.44
1.83 1.70 1.62 1.59 1.59 1.54 1.51 1.57 1.56 1.60 1.67 1.59 1.53 1.52 1.51 1.46 1.53 1.57 1.66 1.79 1.99 2.14 2.01 1.67 1.61 1.65 1.66 1.55 1.72 1.53 1.47 1.46 1.40 1.55 1.67 1.62 1.61 1.79 1.92 1.93 1.75 1.59 1.50
1.60 1.49 1.41 1.37 1.35 1.37 1.36 1.41 1.39 1.35 1.32 1.29 1.24 1.22 1.25 1.32 1.43 1.43 1.46 1.60 1.81 2.02 2.08 1.70 1.56 1.65 1.79 1.74 1.77 1.69 1.59 1.60 1.58 1.91 2.06 2.25 2.03 1.93 2.02 2.05 1.98 1.75 1.57
1.41 1.34 1.23 1.19 1.15 1.12 1.11 1.12 1.15 1.16 1.16 1.12 1.13 1.18 1.19 1.23 1.30 1.38 1.44 1.50 1.66 1.92 2.08 1.98 1.75 1.77 1.82 1.79 1.85 1.81 1.62 1.53 1.57 1.99 2.22 2.51 2.45 2.19 2.20 2.09 1.99 1.80 1.64
1.25 1.18 1.13 1.11 1.06 1.05 1.00 0.97 0.99 1.06 1.06 1.02 1.06 1.12 1.18 1.33 1.33 1.37 1.44 1.47 1.59 1.73 2.04 2.10 1.89 1.89 1.95 1.95 2.07 1.91 1.73 1.72 1.47 1.78 2.17 2.48 2.58 2.57 2.63 2.53 2.29 1.94 1.70
1.20 1.15 1.13 1.05 1.00 0.96 0.96 0.94 0.94 0.98 1.00 1.00 1.05 1.12 1.17 1.30 1.38 1.45 1.46 1.54 1.62 1.76 1.95 2.09 2.03 2.02 2.08 2.12 2.14 2.06 1.94 1.79 1.62 1.57 2.01 2.43 2.72 2.75 2.89 2.99 2.75 2.30 1.94
1.11 1.10 1.10 1.05 1.00 0.92 0.88 0.90 0.91 0.93 1.01 1.03 1.01 1.02 1.07 1.17 1.28 1.28 1.21 1.31 1.50 1.75 1.82 2.00 2.06 2.09 2.09 2.15 2.05 1.84 1.79 1.75 1.60 1.51 1.72 2.07 2.74 3.05 3.07 3.12 3.02 2.54 2.11
1.15 1.11 1.07 1.03 0.97 0.79 0.84 0.87 0.87 0.94 1.00 1.00 1.00 0.98 0.94 0.93 0.91 0.93 0.98 1.06 1.23 1.53 1.88 2.10 2.06 2.04 1.93 1.87 1.89 1.84 1.86 1.86 1.81 1.52 1.49 1.73 2.28 3.05 3.26 3.19 3.09 2.47 1.96
1.15 1.08 1.02 1.02 0.98 0.88 0.83 0.77 0.81 0.91 1.00 1.06 1.11 1.08 0.85 0.74 0.85 0.90 0.95 1.00 1.13 1.31 1.64 2.03 2.12 1.92 1.87 1.83 1.90 1.91 1.97 2.00 1.85 1.54 1.60 1.82 2.14 2.81 2.95 2.90 2.81 2.18 1.74
1.12 1.13 1.09 1.07 1.06 0.92 0.82 0.74 0.77 0.84 0.96 0.99 1.01 1.05 1.06 0.97 0.90 0.99 1.06 1.14 1.26 1.37 1.47 1.59 1.93 1.78 1.60 1.65 1.77 1.84 1.97 2.00 1.88 1.66 1.69 1.96 2.16 2.59 2.55 2.60 2.48 2.02 1.67
1.09 1.06 1.04 1.05 1.11 1.04 0.88 0.77 0.72 0.78 0.89 0.91 0.87 0.87 0.87 0.91 1.00 1.17 1.28 1.49 1.61 1.70 1.57 1.72 1.90 1.86 1.72 1.69 1.62 1.75 2.05 2.11 1.97 1.79 1.78 2.04 2.15 2.22 2.31 2.36 2.09 1.88 1.61
1.06 1.03 1.00 1.03 1.04 0.97 0.81 0.68 0.64 0.70 0.84 0.89 0.93 0.89 0.82 0.77 0.91 1.09 1.34 1.66 1.81 1.88 1.73 1.83 2.10 2.13 1.96 1.97 1.97 1.92 2.13 2.22 2.11 2.02 1.76 1.87 2.04 2.01 2.18 2.10 1.91 1.76 1.68